Weather History for KBFF - July, 2014

Change the Weather History Date:

Sunday, July 20, 2014

  Actual Average Record
Temperature  
Mean Temperature 80 °F 75 °F  
Max Temperature 101 °F 91 °F 108 °F (1939)
Min Temperature 59 °F 59 °F 40 °F (1900)
Degree Days  
Heating Degree Days 0 0  
Month to date heating degree days 7 1  
Since 1 June heating degree days 60 61  
Since 1 July heating degree days 7 1  
Cooling Degree Days 15 10  
Month to date cooling degree days 159 180  
Year to date cooling degree days 281 329  
Since 1 June cooling degree days 254 306  
Growing Degree Days 30 (Base 50)    
Moisture  
Dew Point 51 °F    
Average Humidity 56    
Maximum Humidity 100    
Minimum Humidity 11    
Precipitation  
Precipitation 0.00 in 0.06 in 0.97 in (1958)
Month to date precipitation 1.33 1.20  
Year to date precipitation 10.21 10.37  
Snow  
Snow 0.00 in 0.00 in - ()
Month to date snowfall 0.0 0.0  
Since 1 July snowfall 0.0 0.0  
Snow Depth 0.00 in    
Sea Level Pressure  
Sea Level Pressure 29.73 in    
Wind  
Wind Speed 9 mph (WNW)    
Max Wind Speed 21 mph    
Max Gust Speed 26 mph    
Visibility 9 miles    
Events      
T = Trace of Precipitation, MM = Missing Value Source: NWS Daily Summary

Daily Weather History Graph

Daily Weather History Graph

Search for Another Location

Airport or City:

Trip Planner

Search our weather history database for the weather conditions in past years. The results will help you decide how hot, cold, wet, or windy it might be!

Date:

Astronomy

Jul. 20, 2014 Rise Set
Actual Time 5:36 AM MDT 8:24 PM MDT
Civil Twilight 5:04 AM MDT 8:56 PM MDT
Nautical Twilight 4:22 AM MDT 9:37 PM MDT
Astronomical Twilight 3:35 AM MDT 10:25 PM MDT
Moon 12:51 AM MDT (7/20) 3:08 PM MDT (7/20)
Length of Visible Light 15h 52m
Length of Day
14h 47m
Waning Crescent, 33% of the Moon is Illuminated
Jul 20
Waning Crescent
Jul 26
New
Aug 3
First Quarter
Aug 10
Full
Aug 17
Last Quarter

Hourly Weather History & Observations

Time (MDT) Temp. Heat Index Dew Point Humidity Pressure Visibility Wind Dir Wind Speed Gust Speed Precip Events Conditions
12:53 AM 68.0 °F - 66.0 °F 93% 29.69 in 8.0 mi ESE 11.5 mph - N/A   Clear
1:53 AM 64.9 °F - 64.0 °F 97% 29.68 in 6.0 mi ESE 4.6 mph - N/A   Clear
2:53 AM 64.0 °F - 63.0 °F 96% 29.69 in 5.0 mi NE 3.5 mph - N/A   Clear
3:53 AM 60.1 °F - 57.0 °F 90% 29.70 in 10.0 mi NW 10.4 mph - N/A   Clear
4:53 AM 60.1 °F - 57.9 °F 93% 29.71 in 10.0 mi NW 10.4 mph - N/A   Clear
5:53 AM 60.1 °F - 57.9 °F 93% 29.74 in 8.0 mi NW 8.1 mph - N/A   Clear
6:53 AM 63.0 °F - 59.0 °F 87% 29.76 in 9.0 mi NW 9.2 mph - N/A   Clear
7:53 AM 69.1 °F - 60.1 °F 73% 29.77 in 10.0 mi WNW 9.2 mph - N/A   Clear
8:53 AM 77.0 °F - 53.1 °F 43% 29.78 in 10.0 mi WNW 9.2 mph - N/A   Clear
9:53 AM 82.0 °F - 48.0 °F 30% 29.77 in 10.0 mi WNW 12.7 mph - N/A   Clear
10:53 AM 89.1 °F - 51.1 °F 27% 29.75 in 10.0 mi West 11.5 mph - N/A   Clear
11:53 AM 93.9 °F - 48.0 °F 21% 29.74 in 10.0 mi NW 13.8 mph - N/A   Clear
12:53 PM 96.1 °F - 48.9 °F 20% 29.73 in 10.0 mi NW 12.7 mph 17.3 mph N/A   Clear
1:53 PM 99.0 °F - 45.0 °F 16% 29.73 in 10.0 mi West 13.8 mph - N/A   Clear
2:53 PM 100.0 °F - 37.9 °F 12% 29.72 in 10.0 mi West 13.8 mph - N/A   Clear
3:53 PM 100.0 °F - 37.9 °F 12% 29.71 in 10.0 mi WNW 6.9 mph - N/A   Clear
4:53 PM 100.0 °F - 39.0 °F 12% 29.70 in 10.0 mi North 5.8 mph - N/A   Clear
5:53 PM 97.0 °F - 39.0 °F 13% 29.70 in 4.0 mi NW 4.6 mph - N/A   Haze
6:53 PM 97.0 °F - 48.0 °F 19% 29.70 in 10.0 mi Calm Calm - N/A   Clear
7:53 PM 88.0 °F 86.7 °F 57.0 °F 35% 29.72 in 10.0 mi SSE 5.8 mph - N/A   Clear
8:53 PM 80.1 °F 80.9 °F 60.1 °F 50% 29.74 in 10.0 mi South 5.8 mph - N/A   Clear
9:53 PM 86.0 °F - 48.0 °F 27% 29.76 in 10.0 mi SSW 18.4 mph 26.5 mph N/A   Partly Cloudy
10:53 PM 82.0 °F - 48.0 °F 30% 29.75 in 10.0 mi SSW 12.7 mph 19.6 mph N/A   Clear
11:53 PM 82.9 °F - 46.9 °F 28% 29.74 in 10.0 mi Calm Calm - N/A   Clear